User: anonymous   Login
Location: Unspecified
(0.0000°N, 0.0000°E)
Time: 02:08:46
(UTC+00:00)
Language:

STARLINK-1646 - Orbit

View from above orbital plane
View from above orbital plane
View from above satellite
View from above satellite

Ground track
Ground track

The orbit is defined by the following mean orbital elements,

1 46351U          26144.86684007 +.00000000 +00000-0 +75171-3 0 00002
2 46351  53.0414 321.3493 0003836 279.2384  80.8200 15.73656026    07
Epoch (UTC): 24 May 2026 20:48:14
Eccentricity: 0.0003836
inclination: 53.0414°
perigee height: 346 km
apogee height: 351 km
right ascension of ascending node: 321.3493°
argument of perigee: 279.2384°
revolutions per day: 15.73656026
mean anomaly at epoch: 80.8200°

The dashed part of the orbit path shows where the satellite is in the earth's shadow,  

DLR